CANX-4

Last updated on Fri Feb 07 2025 00:03:39 GMT+0000 (Coordinated Universal Time)

1 40055U 14034C 25037.56926780 .00002616 00000+0 35567-3 0 9999 2 40055 98.3764 248.1467 0013398 156.8288 203.3529 14.79661639571220
UTC large
Height (km)
Speed (km/s)
/
Latitude / Longitude
Inclination (degrees)
Orbital Period (minutes)
Azimuth
Elevation
Range (km)
Doppler Factor

Next 0 passes for location: London (51.5072 / 0.1276)

Sorry there are no passes over London.